Location: Sternwarte-Kirchheim
(50.8752°N, 11.0153°E)
Time: 21:15:10
(UTC+01:00)

ISS - Pass Details

Date: 27 February 2019
Orbit: 406 x 411 km, 51.6° (Epoch: 19 March)

Event Time Altitude Azimuth Distance (km) Brightness Sun altitude
Exits shadow 06:18:34 - 235° (SW) 1,772 -1.1 -8.1°
Reaches altitude 10° 06:19:19 10° 233° (SW) 1,463 -1.5 -8.0°
Maximum altitude 06:22:31 51° 156° (SSE) 521 -3.1 -7.5°
Drops below altitude 10° 06:25:44 10° 80° (E) 1,471 0.5 -7.0°
Sets 06:27:51 0° 75° (ENE) 2,334 1.6 -6.7°
